Flag for Germany Weather past 2 weeks in Mülheim, North Rhine-Westphalia, Germany

Now
68 °F

Scattered clouds.


Feels Like: 68 °F
Forecast: 52 / 81 °F
Wind: 6 mph from North

Location: Koeln / Bonn

Current Time: Aug 28, 2015 at 4:51:21 PM

Latest Report: Aug 28, 2015 at 4:20 PM


Visibility: N/A

Pressure: 30.09 "Hg

Humidity: 60%

Dew point: 54 °F

Location of MülheimLocation

Historic Weather in Mülheim — Graph

°F

Mülheim temperature yesterday

Maximum temperature yesterday: 73 °F (at 1:50 AM)
Minimum temperature yesterday: 55 °F (at 9:20 PM)
Average temperature yesterday: 64 °F

Past Weeks' High & Low Weather Summary

 TemperatureHumidityPressure
High90 °F (Aug 13, 3:20 PM)94% (Aug 15, 10:50 PM)30.27 "Hg (Aug 15, 10:50 PM)
Low46 °F (Aug 19, 6:50 AM)26% (Aug 23, 3:20 PM)29.56 "Hg (Aug 24, 2:20 PM)
Average65 °F70%29.94 "Hg
* Reported Aug 13 3:20 PM — Aug 28 3:20 PM, Mülheim, Weather by CustomWeather, © 2015

Note: Actual official high and low records may vary slightly from our data, if they occured in-between our weather recording intervals... More about our weather records

Advertising

Mülheim weather history for previous 24 hours

 ConditionsComfort  
Time TempWeatherWind HumidityBarometerVisibility
3:20 PM
Fri, Aug 28
68 °FPartly sunny.5 mph56%30.09 "HgN/A
2:50 PM70 °FPartly sunny.5 mph57%30.09 "HgN/A
2:20 PM66 °FScattered clouds.5 mph60%30.09 "HgN/A
1:50 PM68 °FPartly sunny.2 mph64%30.07 "HgN/A
1:20 PM64 °FBroken clouds.3 mph68%30.09 "HgN/A
12:50 PM64 °FBroken clouds.3 mph68%30.07 "HgN/A
12:20 PM64 °FBroken clouds.1 mph73%30.07 "HgN/A
11:50 AM63 °FBroken clouds.3 mph68%30.07 "HgN/A
11:20 AM63 °FScattered clouds.1 mph73%30.07 "HgN/A
10:50 AM61 °FScattered clouds.3 mph83%30.07 "HgN/A
10:20 AM61 °FScattered clouds.2 mph83%30.04 "HgN/A
9:50 AM59 °FScattered clouds.3 mph88%30.04 "HgN/A
9:20 AM59 °FScattered clouds.2 mph88%30.04 "HgN/A
8:50 AM57 °FScattered clouds.3 mph94%30.04 "HgN/A
8:20 AM57 °FPartly sunny.3 mph94%30.01 "HgN/A
7:50 AM55 °FPartly sunny.2 mph94%30.01 "Hg5 mi
7:20 AM55 °FPassing clouds.3 mph94%30.01 "Hg5 mi
6:50 AM55 °FPassing clouds.5 mph94%30.01 "Hg5 mi
6:20 AM55 °FPassing clouds.2 mph94%29.98 "Hg6 mi
5:50 AM55 °FPassing clouds.3 mph94%29.98 "HgN/A
5:20 AM55 °FPassing clouds.3 mph94%29.98 "HgN/A
4:50 AM55 °FPassing clouds.2 mph94%29.98 "HgN/A
4:20 AM55 °FPartly cloudy.3 mph94%29.95 "HgN/A
3:50 AM55 °FLight rain. Mostly cloudy.3 mph94%29.95 "HgN/A
3:20 AM55 °FPassing clouds.2 mph94%29.95 "HgN/A
2:50 AM55 °FPartly cloudy.3 mph94%29.95 "HgN/A
2:20 AM55 °FPartly cloudy.3 mph94%29.95 "HgN/A
1:50 AM55 °FPartly cloudy.2 mph94%29.95 "HgN/A
1:20 AM55 °FLight rain. Passing clouds.1 mph94%29.95 "HgN/A
12:50 AM55 °FRain. Partly cloudy.1 mph94%29.95 "HgN/A
12:20 AM55 °FRain. Partly cloudy.2 mph94%29.92 "HgN/A
11:50 PM
Thu, Aug 27
55 °FLight rain. Partly cloudy.3 mph94%29.92 "HgN/A
11:20 PM55 °FRain. Mostly cloudy.6 mph94%29.92 "HgN/A
10:50 PM55 °FRain. Partly cloudy.5 mph94%29.92 "HgN/A
10:20 PM55 °FRain. Partly cloudy.5 mph94%29.92 "HgN/A
9:50 PM55 °FRain. Mostly cloudy.6 mph94%29.89 "Hg6 mi
9:20 PM55 °FLight rain. Broken clouds.5 mph94%29.89 "Hg4 mi
8:50 PM57 °FRain. Broken clouds.2 mph88%29.89 "Hg4 mi
8:20 PM57 °FRain. Broken clouds.3 mph88%29.89 "Hg4 mi
7:50 PM57 °FRain. Broken clouds.2 mph88%29.89 "Hg4 mi
7:20 PM57 °FRain. More clouds than sun.3 mph88%29.86 "Hg4 mi
6:50 PM57 °FRain. Low clouds.5 mph88%29.89 "Hg6 mi
6:20 PM57 °FRain. More clouds than sun.6 mph88%29.89 "HgN/A
5:50 PM57 °FLight rain. More clouds than sun.8 mph94%29.89 "HgN/A
5:20 PM57 °FLight rain. More clouds than sun.12 mph94%29.89 "HgN/A
4:50 PM59 °FLight rain. More clouds than sun.5 mph94%29.86 "HgN/A
4:20 PM59 °FLight rain. More clouds than sun.7 mph88%29.86 "HgN/A
Weather by CustomWeather, © 2015

See weather overviewHow to use our weather pages